Simultaneous Nadir Overpasses (SNOs) Predictions

Prediction of SNOs between GOES-17 and AQUA Satellite Orbit:

Table of predicted SNOs for the next 14.0 days since TLE Epoch: 11/14/2025
Index Date Time (GOES-17) GOES-17 Lat,Lon AQUA Lat,Lon Distance(km) Time Diff (sec)
1 11/16/2025 20:54:06 -0.07, -89.49 0.08, -88.72 87.75 80
2 11/17/2025 09:15:43 0.11, -89.52 0.92, -93.29 429.30 80
3 11/19/2025 08:51:56 0.09, -89.52 -0.19, -88.12 159.65 80
4 11/19/2025 21:13:41 -0.13, -89.50 -0.80, -92.72 366.43 80
5 11/21/2025 20:49:53 -0.11, -89.51 0.33, -87.55 223.70 80
6 11/22/2025 09:11:29 0.15, -89.54 0.69, -92.12 292.54 80
7 11/24/2025 08:47:40 0.13, -89.55 -0.46, -86.94 297.76 80
8 11/24/2025 21:09:23 -0.17, -89.52 -0.61, -91.53 228.38 80
9 11/26/2025 20:45:33 -0.14, -89.54 0.57, -86.35 363.44 80
10 11/27/2025 09:07:07 0.18, -89.58 0.48, -90.91 151.84 80
